{"data":{"norad_id":43275,"epoch":"2026-09-20T04:44:22.862976Z","epoch_age_seconds":78043,"freshness":"FRESH","line1":"1 43275U 18034A   26263.19748684  .00000070  00000+0  21184-3 0  9998","line2":"2 43275  63.3932 206.7916 0283663   7.7377 352.7889 13.45467470414887","mean_motion":13.4546747,"eccentricity":0.0283663,"inclination_deg":63.3932,"raan_deg":206.7916,"arg_perigee_deg":7.7377,"mean_anomaly_deg":352.7889,"bstar":0.00021184,"rev_number":41488,"period_min":107.0259989266,"perigee_km":877.16691770788,"apogee_km":1300.7959612886,"semimajor_km":7467.1184394982,"source":"CELESTRAK","updated_at":"2026-09-20T09:00:14.318184Z"}}